Whiteman AFB, MO

11:21 PM CDT on August 23, 2019 (GMT -0500)
Whiteman Air Force Base

Weather History for KSZL - May, 2019

Change the Weather History Date:

Friday, May 24, 2019

  Actual Average Record
Temperature  
Mean Temperature 74 °F -  
Max Temperature 84 °F 75 °F 87 °F (2000)
Min Temperature 65 °F 55 °F 44 °F (2001)
Cooling Degree Days 10    
Growing Degree Days 24 (Base 50)    
Moisture  
Dew Point 70 °F    
Average Humidity 90    
Maximum Humidity 100    
Minimum Humidity 69    
Precipitation  
Precipitation 0.42 in - - ()
Sea Level Pressure  
Sea Level Pressure 29.94 in    
Wind  
Wind Speed 10 mph (SSW)    
Max Wind Speed 29 mph    
Max Gust Speed 34 mph    
Visibility 9 miles    
Events Rain , Thunderstorm    
Averages and records for this station are not official NWS values.
T = Trace of Precipitation, MM = Missing Value Source: NWS Daily Summary

Daily Weather History Graph

Daily Weather History Graph

Search for Another Location

Airport or City:

Astronomy

May. 24, 2019 Rise Set
Actual Time 5:55 AM CDT 8:27 PM CDT
Civil Twilight 5:24 AM CDT 8:57 PM CDT
Nautical Twilight 4:46 AM CDT 9:36 PM CDT
Astronomical Twilight 4:04 AM CDT 10:18 PM CDT
Moon 12:52 AM CDT 10:56 AM CDT
Length of Visible Light 15h 33m
Length of Day
14h 31m
Waning Gibbous, 68% of the Moon is Illuminated
May 24
Waning Gibbous
May 26
Last Quarter
Jun 3
New
Jun 10
First Quarter
Jun 17
Full

Hourly Weather History & Observations

Time (CDT) Temp. Heat Index Dew Point Humidity Pressure Visibility Wind Dir Wind Speed Gust Speed Precip Events Conditions
12:56 AM 71.6 °F - 71.6 °F 100% 29.94 in 10.0 mi SE 4.6 mph - N/A   Clear
1:56 AM 70.9 °F - 70.9 °F 100% 29.94 in 10.0 mi South 5.8 mph - N/A   Clear
2:56 AM 70.7 °F - 70.7 °F 100% 29.93 in 10.0 mi SSE 4.6 mph - N/A   Clear
3:56 AM 69.4 °F - 69.4 °F 100% 29.94 in 10.0 mi South 9.2 mph - N/A   Scattered Clouds
4:56 AM 70.7 °F - 70.7 °F 100% 29.93 in 10.0 mi SSE 9.2 mph - N/A   Partly Cloudy
5:56 AM 71.6 °F - 70.9 °F 98% 29.93 in 10.0 mi South 12.7 mph - N/A   Scattered Clouds
6:56 AM 71.8 °F - 71.1 °F 98% 29.94 in 10.0 mi South 12.7 mph - N/A   Clear
7:56 AM 73.8 °F - 71.2 °F 92% 29.94 in 10.0 mi South 17.3 mph - N/A   Clear
8:56 AM 75.0 °F - 71.2 °F 88% 29.95 in 10.0 mi SSW 16.1 mph 25.3 mph N/A   Scattered Clouds
9:36 AM 75.2 °F - 71.6 °F 89% 29.97 in 10.0 mi SSW 13.8 mph 24.2 mph N/A   Mostly Cloudy
9:56 AM 75.7 °F - 71.6 °F 87% 29.97 in 10.0 mi SSW 15.0 mph - N/A   Mostly Cloudy
10:06 AM 77.0 °F - 71.6 °F 83% 29.97 in 10.0 mi SSW 13.8 mph - N/A   Scattered Clouds
10:56 AM 78.8 °F - 72.9 °F 82% 29.96 in 10.0 mi South 17.3 mph - N/A   Clear
11:56 AM 81.7 °F 86.3 °F 71.8 °F 72% 29.96 in 10.0 mi South 17.3 mph 23.0 mph N/A   Partly Cloudy
12:56 PM 81.1 °F 84.7 °F 70.0 °F 69% 29.95 in 10.0 mi SSW 12.7 mph - N/A   Partly Cloudy
1:56 PM 82.2 °F 87.1 °F 72.1 °F 71% 29.88 in 10.0 mi South 19.6 mph 27.6 mph N/A   Scattered Clouds
2:56 PM 83.7 °F 91.0 °F 74.5 °F 74% 29.90 in 10.0 mi South 18.4 mph 27.6 mph N/A   Partly Cloudy
3:56 PM 84.2 °F 91.6 °F 74.1 °F 72% 29.89 in 10.0 mi SSW 16.1 mph 25.3 mph N/A   Scattered Clouds
4:56 PM 82.6 °F 88.6 °F 73.4 °F 74% 29.87 in 10.0 mi South 10.4 mph - N/A   Clear
5:56 PM 82.2 °F 87.1 °F 71.8 °F 71% 29.86 in 10.0 mi SSW 12.7 mph 20.7 mph N/A   Partly Cloudy
6:56 PM 79.3 °F - 73.2 °F 81% 29.83 in 10.0 mi South 5.8 mph - N/A   Clear
7:56 PM 77.7 °F - 71.8 °F 82% 29.85 in 10.0 mi South 5.8 mph - N/A   Partly Cloudy
8:56 PM 77.4 °F - 70.0 °F 78% 29.90 in 10.0 mi SW 8.1 mph - N/A   Mostly Cloudy
9:06 PM 78.8 °F - 69.8 °F 74% 29.94 in 6.0 mi West 28.8 mph 34.5 mph N/A Rain Light Rain Showers
9:31 PM 68.0 °F - 68.0 °F 100% 29.99 in 5.0 mi WNW 12.7 mph - N/A Rain , Thunderstorm Thunderstorms and Rain
9:46 PM 68.0 °F - 68.0 °F 100% 29.99 in 5.0 mi WNW 11.5 mph 19.6 mph N/A Rain , Thunderstorm Light Thunderstorms and Rain
9:56 PM 66.9 °F - 66.9 °F 100% 29.99 in 8.0 mi WNW 9.2 mph - 0.17 in Rain , Thunderstorm Light Thunderstorms and Rain
10:07 PM 66.2 °F - 66.2 °F 100% 29.97 in 10.0 mi WNW 8.1 mph - N/A Rain Light Rain
10:16 PM 66.2 °F - 66.2 °F 100% 29.99 in 6.0 mi West 5.8 mph - N/A Rain , Thunderstorm Light Thunderstorms and Rain
10:31 PM 66.2 °F - 66.2 °F 100% 29.99 in 4.0 mi WNW 4.6 mph - N/A Rain , Thunderstorm Thunderstorms and Rain
10:46 PM 66.2 °F - 66.2 °F 100% 29.97 in 6.0 mi ESE 4.6 mph - N/A Rain Rain Showers
10:56 PM 65.5 °F - 65.5 °F 100% 29.97 in 6.0 mi SSE 3.5 mph - 0.18 in Rain , Thunderstorm Light Rain Showers
10:59 PM 66.2 °F - 66.2 °F 100% 29.97 in 3.0 mi SE 3.5 mph - N/A Rain , Thunderstorm Light Thunderstorms and Rain
11:26 PM 66.2 °F - 66.2 °F 100% 29.95 in 10.0 mi Calm Calm - N/A Rain , Thunderstorm Light Rain
11:57 PM 66.2 °F - 66.2 °F 100% 29.97 in 5.0 mi West 5.8 mph - 0.07 in Rain , Thunderstorm Light Rain